When you browse on this site, cookies collect data to enhance your experience and personalize the content and advertising you see.
Visit our Privacy Policy to learn more. By continuing to use the site, you agree to this use of cookies and data.
  • în România
  • Lista ţărilor
  • Pe 7 zile
  • Temperatura apei
  • Hartă satelitară
  • Meteo pe hartă
  • Widget-uri
  • user-avatar
    Intrare

    Meteo pe oră la Mingora

    Astăzi, 25 Mai, Sâmbătă

    Timp Temperatura Precipitaţii Vânt Presiune Umiditate
    00:00 +18°C° 0 mm 2 m/s 674 mmHg 66%
    01:00 +17°C° 0 mm 2 m/s 674 mmHg 65%
    02:00 +17°C° 0 mm 2 m/s 673 mmHg 64%
    03:00 +17°C° 0 mm 3 m/s 673 mmHg 61%
    04:00 +16°C° 0 mm 3 m/s 673 mmHg 59%
    05:00 +17°C° 0 mm 3 m/s 673 mmHg 51%
    06:00 +19°C° 0 mm 3 m/s 673 mmHg 46%
    07:00 +21°C° 0 mm 2 m/s 674 mmHg 41%
    08:00 +25°C° 0 mm 1 m/s 674 mmHg 36%
    09:00 +26°C° 0 mm 2 m/s 674 mmHg 33%
    10:00 +28°C° 0 mm 2 m/s 674 mmHg 31%
    11:00 +29°C° 0 mm 2 m/s 674 mmHg 28%
    12:00 +30°C° 0 mm 2 m/s 674 mmHg 28%
    13:00 +30°C° 0 mm 3 m/s 674 mmHg 28%
    14:00 +31°C° 0 mm 3 m/s 674 mmHg 28%
    15:00 +31°C° 0 mm 3 m/s 673 mmHg 29%
    16:00 +30°C° 0 mm 3 m/s 673 mmHg 31%
    17:00 +30°C° 0 mm 2 m/s 673 mmHg 32%
    18:00 +28°C° 0.2 mm 2 m/s 673 mmHg 37%
    19:00 +26°C° 0.2 mm 1 m/s 672 mmHg 42%
    20:00 +24°C° 0.2 mm 1 m/s 672 mmHg 48%
    21:00 +23°C° 0 mm 1 m/s 672 mmHg 48%
    22:00 +21°C° 0 mm 2 m/s 673 mmHg 48%
    23:00 +21°C° 0 mm 3 m/s 673 mmHg 48%

    Mâine, 26 Mai, Duminică

    Timp Temperatura Precipitaţii Vânt Presiune Umiditate
    00:00 +20°C° 0 mm 3 m/s 672 mmHg 45%
    01:00 +20°C° 0 mm 3 m/s 672 mmHg 42%
    02:00 +19°C° 0 mm 3 m/s 672 mmHg 39%
    03:00 +19°C° 0 mm 3 m/s 672 mmHg 38%
    04:00 +18°C° 0 mm 4 m/s 672 mmHg 37%
    05:00 +18°C° 0 mm 4 m/s 672 mmHg 35%
    06:00 +20°C° 0 mm 3 m/s 672 mmHg 33%
    07:00 +24°C° 0 mm 3 m/s 673 mmHg 30%
    08:00 +26°C° 0 mm 2 m/s 674 mmHg 28%
    09:00 +27°C° 0 mm 2 m/s 674 mmHg 25%
    10:00 +29°C° 0 mm 1 m/s 674 mmHg 22%
    11:00 +31°C° 0 mm 1 m/s 674 mmHg 18%
    12:00 +31°C° 0 mm 1 m/s 674 mmHg 18%
    13:00 +32°C° 0 mm 2 m/s 674 mmHg 18%
    14:00 +32°C° 0 mm 2 m/s 674 mmHg 17%
    15:00 +32°C° 0 mm 2 m/s 674 mmHg 18%
    16:00 +32°C° 0 mm 2 m/s 674 mmHg 18%
    17:00 +31°C° 0 mm 1 m/s 674 mmHg 19%
    18:00 +29°C° 0.1 mm 2 m/s 674 mmHg 23%
    19:00 +27°C° 0.1 mm 2 m/s 674 mmHg 28%
    20:00 +24°C° 0.1 mm 3 m/s 674 mmHg 33%
    21:00 +22°C° 0 mm 3 m/s 674 mmHg 34%
    22:00 +21°C° 0 mm 3 m/s 674 mmHg 35%
    23:00 +20°C° 0 mm 4 m/s 674 mmHg 36%

    Poimâine, 27 Mai, Luni

    Timp Temperatura Precipitaţii Vânt Presiune Umiditate
    00:00 +20°C° 0 mm 4 m/s 674 mmHg 35%
    01:00 +19°C° 0 mm 4 m/s 674 mmHg 33%
    02:00 +19°C° 0 mm 4 m/s 674 mmHg 32%
    03:00 +18°C° 0 mm 4 m/s 674 mmHg 32%
    04:00 +18°C° 0 mm 4 m/s 674 mmHg 31%
    05:00 +18°C° 0 mm 4 m/s 674 mmHg 31%
    06:00 +20°C° 0 mm 4 m/s 674 mmHg 30%
    07:00 +24°C° 0 mm 3 m/s 675 mmHg 28%
    08:00 +26°C° 0 mm 3 m/s 675 mmHg 27%
    09:00 +28°C° 0 mm 2 m/s 675 mmHg 24%
    10:00 +30°C° 0 mm 2 m/s 676 mmHg 20%
    11:00 +31°C° 0 mm 1 m/s 676 mmHg 17%
    12:00 +32°C° 0 mm 1 m/s 676 mmHg 16%
    13:00 +33°C° 0 mm 1 m/s 675 mmHg 16%
    14:00 +34°C° 0 mm 2 m/s 675 mmHg 15%
    15:00 +34°C° 0 mm 2 m/s 675 mmHg 16%
    16:00 +33°C° 0 mm 1 m/s 675 mmHg 17%
    17:00 +33°C° 0 mm 1 m/s 674 mmHg 17%
    18:00 +30°C° 0 mm 1 m/s 674 mmHg 20%
    19:00 +28°C° 0 mm 1 m/s 674 mmHg 23%
    20:00 +26°C° 0 mm 2 m/s 674 mmHg 26%
    21:00 +25°C° 0 mm 2 m/s 674 mmHg 27%
    22:00 +24°C° 0 mm 3 m/s 674 mmHg 28%
    23:00 +22°C° 0 mm 4 m/s 675 mmHg 29%

    28 Mai, Marţi

    Timp Temperatura Precipitaţii Vânt Presiune Umiditate
    00:00 +22°C° 0 mm 4 m/s 674 mmHg 29%
    01:00 +21°C° 0 mm 4 m/s 674 mmHg 29%
    02:00 +21°C° 0 mm 4 m/s 674 mmHg 29%
    03:00 +20°C° 0 mm 4 m/s 673 mmHg 28%
    04:00 +20°C° 0 mm 4 m/s 673 mmHg 28%
    05:00 +19°C° 0 mm 4 m/s 673 mmHg 27%
    06:00 +22°C° 0 mm 3 m/s 674 mmHg 26%
    07:00 +25°C° 0 mm 3 m/s 674 mmHg 25%
    08:00 +28°C° 0 mm 3 m/s 675 mmHg 24%
    09:00 +30°C° 0 mm 2 m/s 675 mmHg 21%
    10:00 +31°C° 0 mm 2 m/s 675 mmHg 17%
    11:00 +33°C° 0 mm 1 m/s 675 mmHg 14%
    12:00 +35°C° 0 mm 2 m/s 675 mmHg 14%
    13:00 +35°C° 0 mm 2 m/s 675 mmHg 14%
    14:00 +36°C° 0 mm 2 m/s 675 mmHg 13%
    15:00 +36°C° 0 mm 2 m/s 674 mmHg 14%
    16:00 +34°C° 0 mm 1 m/s 674 mmHg 14%
    17:00 +34°C° 0 mm 1 m/s 674 mmHg 15%
    18:00 +32°C° 0 mm 1 m/s 674 mmHg 17%
    19:00 +29°C° 0 mm 1 m/s 674 mmHg 20%
    20:00 +27°C° 0 mm 1 m/s 674 mmHg 22%
    21:00 +26°C° 0 mm 2 m/s 674 mmHg 23%
    22:00 +25°C° 0 mm 3 m/s 674 mmHg 24%
    23:00 +23°C° 0 mm 4 m/s 674 mmHg 24%

    29 Mai, Miercuri

    Timp Temperatura Precipitaţii Vânt Presiune Umiditate
    00:00 +23°C° 0 mm 4 m/s 674 mmHg 24%
    01:00 +22°C° 0 mm 4 m/s 673 mmHg 23%
    02:00 +22°C° 0 mm 4 m/s 673 mmHg 23%
    03:00 +21°C° 0 mm 4 m/s 673 mmHg 23%
    04:00 +21°C° 0 mm 4 m/s 672 mmHg 23%
    05:00 +21°C° 0 mm 4 m/s 672 mmHg 22%
    06:00 +24°C° 0 mm 3 m/s 673 mmHg 22%
    07:00 +27°C° 0 mm 3 m/s 673 mmHg 22%
    08:00 +29°C° 0 mm 3 m/s 674 mmHg 21%
    09:00 +31°C° 0 mm 2 m/s 674 mmHg 18%
    10:00 +34°C° 0 mm 2 m/s 674 mmHg 15%
    11:00 +35°C° 0 mm 1 m/s 674 mmHg 12%
    12:00 +36°C° 0 mm 2 m/s 674 mmHg 12%
    13:00 +37°C° 0 mm 2 m/s 674 mmHg 12%
    14:00 +37°C° 0 mm 2 m/s 673 mmHg 12%
    15:00 +37°C° 0 mm 2 m/s 673 mmHg 13%
    16:00 +37°C° 0 mm 2 m/s 673 mmHg 13%
    17:00 +36°C° 0 mm 2 m/s 673 mmHg 14%
    18:00 +34°C° 0 mm 2 m/s 673 mmHg 16%
    19:00 +30°C° 0 mm 2 m/s 673 mmHg 18%
    20:00 +28°C° 0 mm 2 m/s 673 mmHg 20%
    21:00 +27°C° 0 mm 2 m/s 673 mmHg 21%
    22:00 +26°C° 0 mm 3 m/s 673 mmHg 22%
    23:00 +25°C° 0 mm 3 m/s 673 mmHg 22%

    30 Mai, Joi

    Timp Temperatura Precipitaţii Vânt Presiune Umiditate
    00:00 +25°C° 0 mm 4 m/s 673 mmHg 22%
    01:00 +23°C° 0 mm 4 m/s 672 mmHg 22%
    02:00 +23°C° 0 mm 4 m/s 672 mmHg 22%
    03:00 +22°C° 0 mm 4 m/s 672 mmHg 22%
    04:00 +22°C° 0 mm 4 m/s 672 mmHg 23%
    05:00 +22°C° 0 mm 4 m/s 672 mmHg 23%
    06:00 +25°C° 0 mm 3 m/s 672 mmHg 22%
    07:00 +28°C° 0 mm 3 m/s 673 mmHg 22%
    08:00 +30°C° 0 mm 3 m/s 673 mmHg 21%
    09:00 +32°C° 0 mm 2 m/s 674 mmHg 18%
    10:00 +35°C° 0 mm 2 m/s 674 mmHg 15%
    11:00 +36°C° 0 mm 1 m/s 674 mmHg 12%
    12:00 +37°C° 0 mm 2 m/s 673 mmHg 12%
    13:00 +38°C° 0 mm 2 m/s 673 mmHg 12%
    14:00 +38°C° 0 mm 2 m/s 673 mmHg 12%
    15:00 +38°C° 0 mm 2 m/s 673 mmHg 12%
    16:00 +38°C° 0 mm 2 m/s 672 mmHg 13%
    17:00 +37°C° 0 mm 2 m/s 672 mmHg 13%
    18:00 +35°C° 0 mm 2 m/s 672 mmHg 15%
    19:00 +31°C° 0 mm 2 m/s 672 mmHg 18%
    20:00 +29°C° 0 mm 2 m/s 672 mmHg 20%
    21:00 +28°C° 0 mm 2 m/s 672 mmHg 21%
    22:00 +27°C° 0 mm 3 m/s 672 mmHg 21%
    23:00 +26°C° 0 mm 4 m/s 672 mmHg 22%
    Arată mai mult